TimeCDT,TemperatureF,Dew PointF,Humidity,Sea Level PressureIn,VisibilityMPH,Wind Direction,Wind SpeedMPH,Gust SpeedMPH,PrecipitationIn,Events,Conditions,WindDirDegrees,DateUTC
12:58 AM,77.2,73.2,88,30.05,10.0,Calm,Calm,-,N/A,,Clear,0,2013-05-24 05:58:00
1:58 AM,77.5,74.1,89,30.05,10.0,Calm,Calm,-,N/A,,Clear,0,2013-05-24 06:58:00
2:58 AM,75.9,73.0,91,30.04,10.0,Calm,Calm,-,N/A,,Clear,0,2013-05-24 07:58:00
3:58 AM,75.6,71.8,88,30.05,10.0,Variable,1.2,-,N/A,,Clear,0,2013-05-24 08:58:00
4:58 AM,74.8,71.8,90,30.06,10.0,Calm,Calm,-,N/A,,Clear,0,2013-05-24 09:58:00
5:58 AM,74.1,71.4,91,30.07,10.0,Calm,Calm,-,N/A,,Partly Cloudy,0,2013-05-24 10:58:00
6:58 AM,74.7,71.8,91,30.10,10.0,Variable,2.3,-,N/A,,Mostly Cloudy,0,2013-05-24 11:58:00
7:58 AM,76.3,70.5,82,30.12,10.0,NE,8.1,-,N/A,,Clear,50,2013-05-24 12:58:00
8:58 AM,80.4,68.0,66,30.13,10.0,NE,10.4,-,N/A,,Clear,50,2013-05-24 13:58:00
9:58 AM,82.8,67.3,59,30.15,10.0,NNE,9.2,-,N/A,,Clear,30,2013-05-24 14:58:00
10:58 AM,84.6,67.8,57,30.15,10.0,NE,8.1,-,N/A,,Clear,50,2013-05-24 15:58:00
11:58 AM,84.4,67.5,57,30.16,10.0,NNE,10.4,-,N/A,,Mostly Cloudy,30,2013-05-24 16:58:00
12:58 PM,86.5,68.0,54,30.15,10.0,NNE,8.1,-,N/A,,Clear,30,2013-05-24 17:58:00
1:58 PM,87.3,68.2,53,30.15,10.0,NE,11.5,-,N/A,,Partly Cloudy,50,2013-05-24 18:58:00
2:58 PM,87.1,67.3,52,30.14,10.0,NNE,8.1,-,N/A,,Partly Cloudy,30,2013-05-24 19:58:00
3:58 PM,86.7,66.0,50,30.13,10.0,NNE,8.1,-,N/A,,Partly Cloudy,30,2013-05-24 20:58:00
4:58 PM,87.1,67.6,52,30.11,10.0,NE,8.1,-,N/A,,Partly Cloudy,50,2013-05-24 21:58:00
5:58 PM,85.6,64.8,49,30.10,10.0,NE,8.1,-,N/A,,Clear,40,2013-05-24 22:58:00
6:58 PM,83.5,64.8,53,30.10,10.0,NE,9.2,-,N/A,,Clear,50,2013-05-24 23:58:00
7:58 PM,81.0,64.6,57,30.12,10.0,NNE,8.1,-,N/A,,Clear,30,2013-05-25 00:58:00
8:58 PM,79.0,64.8,62,30.14,10.0,NNE,8.1,-,N/A,,Clear,30,2013-05-25 01:58:00
9:58 PM,76.1,63.7,65,30.16,10.0,NE,10.4,-,N/A,,Clear,40,2013-05-25 02:58:00
10:58 PM,73.8,62.2,67,30.17,10.0,NE,10.4,-,N/A,,Clear,50,2013-05-25 03:58:00
11:58 PM,72.3,58.3,61,30.16,10.0,NE,11.5,-,N/A,,Clear,50,2013-05-25 04:58:00